Regional Weather Roundup
Issued by NWS Green Bay, WI

Home | Current Version | Previous Version | Graphics & Text | Print | Product List | Glossary Off
Versions: 1 2 3 4 5 6 7 8 9 10 11 12 13 14 15 16 17 18 19 20 21 22 23 24 25 26 27 28 29 30 31 32 33 34 35 36 37 38 39 40 41 42 43 44 45 46 47 48 49 50

916
ASUS43 KGRB 140800
RWRGRB

NORTH-CENTRAL AND NORTHEAST WISCONSIN REGIONAL WEATHER ROUNDUP
NATIONAL WEATHER SERVICE GREEN BAY WI
200 AM CST THU DEC 14 2017

WIZ005-009-010>012-018-019-140900-
NORTH CENTRAL WISCONSIN

CITY           SKY/WX    TMP DP  RH WIND       PRES   REMARKS
IRONWOOD       CLOUDY    15   9  76 W6        29.89R WCI   6
MANITOWISH WTR NOT AVBL
ARBOR VITAE    NOT AVBL
EAGLE RIVER    NOT AVBL
LAND O LAKES   NOT AVBL
RHINELANDER    CLOUDY     6   2  83 CALM      29.86R
PHILLIPS       NOT AVBL
ANTIGO         NOT AVBL
TOMAHAWK       NOT AVBL
MERRILL        NOT AVBL
$$

WIZ013-073-140900-
NORTHEAST WISCONSIN

CITY           SKY/WX    TMP DP  RH WIND       PRES   REMARKS
IRON MOUNTAIN  FLURRIES  15   7  70 NW9       29.85R WCI   3
MARINETTE      CLOUDY     7   4  87 NW5       29.90R WCI  -2
$$

WIZ017-030-035>037-045-140900-
CENTRAL WISCONSIN

CITY           SKY/WX    TMP DP  RH WIND       PRES   REMARKS
MEDFORD        NOT AVBL
WAUSAU         MOCLDY    10   8  92 NW5       29.88R WCI   2
MOSINEE        NOT AVBL
MARSHFIELD     CLOUDY     9   6  88 NW8       29.91R WCI  -3
WISC RAPIDS    CLOUDY     7   4  87 CALM      29.94R
STEVENS POINT  NOT AVBL
WAUPACA        NOT AVBL
SHAWANO        NOT AVBL
CLINTONVILLE   NOT AVBL
WAUTOMA        CLOUDY     3   1  91 NW5       29.94R WCI  -6
$$

WIZ038-039-048-051-140900-
FOX VALLEY

CITY           SKY/WX    TMP DP  RH WIND       PRES   REMARKS
NWS GREEN BAY  CLOUDY     7   3  84 NW9       29.90R WCI  -7
APPLETON       NOT AVBL
OSHKOSH        CLOUDY    10   7  87 W7        29.90R WCI  -1
FOND DU LAC    CLOUDY     7   3  84 W3        29.91R
$$

WIZ022-050-052-140900-
EAST CENTRAL WISCONSIN

CITY           SKY/WX    TMP DP  RH WIND       PRES   REMARKS
EPHRAIM        NOT AVBL
WASHINGTON ISL NOT AVBL
STURGEON BAY   CLOUDY    19  11  70 N18       29.86S WCI   4
MANITOWOC      CLOUDY     7   5  91 NW7       29.89R WCI  -5
SHEBOYGAN      CLOUDY     9   7  92 NW7       29.89R WCI  -2
$$

LMZ563-521-522-541>543-140900-
LAKESHORE

STATION/POSITION TIME  TEMP    WIND        PRES    VSBY  WAVE
                       AIR SEA DIR/SP/G                  HT/PER
                 (UTC) (F)     (DEG/KT/KT) (MB)    (MI)  (FT/S)
SHEBOYGAN LKSHOR 0700   16     310/ 15/ 20 1012.0R
KEWAUNEE LKSHORE 0730   11     300/  5/  5 1010.8R
NORTHPORT PIER   0740   22     340/ 17/ 22 1011.2R
MENOMINEE LKSHOR 0730   13     300/  9/ 13 1011.4R
$$




USA.gov is the U.S. government's official web portal to all federal, state and local government web resources and services.